Time,TemperatureF,DewpointF,PressureIn,WindDirection,WindDirectionDegrees,WindSpeedMPH,WindSpeedGustMPH,Humidity,HourlyPrecipIn,Conditions,Clouds,dailyrainin,SoftwareType,DateUTC
2013-03-28 00:02:00,53.0,-99.9,30.34,West,276,5.0,6.0,-999,-99.99,,,-99.99,,2013-03-28 05:02:00,
2013-03-28 00:12:00,53.0,-99.9,30.34,West,269,5.0,6.0,-999,-99.99,,,-99.99,,2013-03-28 05:12:00,
2013-03-28 00:22:00,52.0,-99.9,30.34,West,266,5.0,7.0,-999,-99.99,,,-99.99,,2013-03-28 05:22:00,
2013-03-28 00:32:00,52.0,-99.9,30.34,West,277,5.0,7.0,-999,-99.99,,,-99.99,,2013-03-28 05:32:00,
2013-03-28 00:43:00,52.0,-99.9,30.34,West,275,5.0,7.0,-999,-99.99,,,-99.99,,2013-03-28 05:43:00,
2013-03-28 00:52:00,52.0,-99.9,30.34,West,278,6.0,8.0,-999,-99.99,,,-99.99,,2013-03-28 05:52:00,
2013-03-28 01:02:00,52.0,-99.9,30.34,West,280,6.0,8.0,-999,-99.99,,,-99.99,,2013-03-28 06:02:00,
2013-03-28 01:13:00,52.0,-99.9,30.35,West,278,6.0,8.0,-999,-99.99,,,-99.99,,2013-03-28 06:13:00,
2013-03-28 01:22:00,52.0,-99.9,30.35,West,276,6.0,8.0,-999,-99.99,,,-99.99,,2013-03-28 06:22:00,
2013-03-28 01:33:00,53.0,-99.9,30.34,West,273,5.0,8.0,-999,-99.99,,,-99.99,,2013-03-28 06:33:00,
2013-03-28 01:42:00,53.0,-99.9,30.34,West,276,6.0,7.0,-999,-99.99,,,-99.99,,2013-03-28 06:42:00,
2013-03-28 01:52:00,53.0,-99.9,30.34,NW,309,4.0,5.0,-999,-99.99,,,-99.99,,2013-03-28 06:52:00,
2013-03-28 02:02:00,52.0,-99.9,30.34,WNW,303,4.0,4.0,-999,-99.99,,,-99.99,,2013-03-28 07:02:00,
2013-03-28 02:13:00,52.0,-99.9,30.34,NW,305,4.0,6.0,-999,-99.99,,,-99.99,,2013-03-28 07:13:00,
2013-03-28 02:22:00,52.0,-99.9,30.34,WNW,295,4.0,6.0,-999,-99.99,,,-99.99,,2013-03-28 07:22:00,
2013-03-28 02:32:00,52.0,-99.9,30.33,NW,313,6.0,8.0,-999,-99.99,,,-99.99,,2013-03-28 07:32:00,
2013-03-28 02:42:00,52.0,-99.9,30.33,WNW,299,4.0,6.0,-999,-99.99,,,-99.99,,2013-03-28 07:42:00,
2013-03-28 02:52:00,52.0,-99.9,30.33,NW,313,5.0,7.0,-999,-99.99,,,-99.99,,2013-03-28 07:52:00,
2013-03-28 03:03:00,52.0,-99.9,30.32,NW,306,6.0,7.0,-999,-99.99,,,-99.99,,2013-03-28 08:03:00,
2013-03-28 03:12:00,52.0,-99.9,30.32,WNW,301,5.0,7.0,-999,-99.99,,,-99.99,,2013-03-28 08:12:00,
2013-03-28 03:22:00,51.0,-99.9,30.32,WNW,302,5.0,6.0,-999,-99.99,,,-99.99,,2013-03-28 08:22:00,
2013-03-28 03:33:00,51.0,-99.9,30.32,WNW,294,4.0,5.0,-999,-99.99,,,-99.99,,2013-03-28 08:33:00,
2013-03-28 03:42:00,51.0,-99.9,30.32,WNW,291,5.0,6.0,-999,-99.99,,,-99.99,,2013-03-28 08:42:00,
2013-03-28 03:52:00,51.0,-99.9,30.32,NW,309,6.0,6.0,-999,-99.99,,,-99.99,,2013-03-28 08:52:00,
2013-03-28 04:02:00,51.0,-99.9,30.32,NW,307,6.0,6.0,-999,-99.99,,,-99.99,,2013-03-28 09:02:00,
2013-03-28 04:12:00,51.0,-99.9,30.32,NW,309,6.0,8.0,-999,-99.99,,,-99.99,,2013-03-28 09:12:00,
2013-03-28 04:22:00,52.0,-99.9,30.33,WNW,299,6.0,8.0,-999,-99.99,,,-99.99,,2013-03-28 09:22:00,
2013-03-28 04:33:00,51.0,-99.9,30.33,WNW,298,7.0,8.0,-999,-99.99,,,-99.99,,2013-03-28 09:33:00,
2013-03-28 04:42:00,51.0,-99.9,30.33,NW,305,6.0,10.0,-999,-99.99,,,-99.99,,2013-03-28 09:42:00,
2013-03-28 04:52:00,52.0,-99.9,30.33,NW,325,9.0,10.0,-999,-99.99,,,-99.99,,2013-03-28 09:52:00,
2013-03-28 05:03:00,52.0,-99.9,30.33,NNW,328,9.0,11.0,-999,-99.99,,,-99.99,,2013-03-28 10:03:00,
2013-03-28 05:12:00,52.0,-99.9,30.33,NNW,334,10.0,11.0,-999,-99.99,,,-99.99,,2013-03-28 10:12:00,
2013-03-28 05:22:00,52.0,-99.9,30.33,NNW,339,11.0,12.0,-999,-99.99,,,-99.99,,2013-03-28 10:22:00,
2013-03-28 05:33:00,52.0,-99.9,30.33,NNW,347,11.0,11.0,-999,-99.99,,,-99.99,,2013-03-28 10:33:00,
2013-03-28 05:43:00,52.0,-99.9,30.33,NNW,347,11.0,12.0,-999,-99.99,,,-99.99,,2013-03-28 10:43:00,
2013-03-28 05:53:00,52.0,-99.9,30.33,North,350,11.0,13.0,-999,-99.99,,,-99.99,,2013-03-28 10:53:00,
2013-03-28 06:03:00,52.0,-99.9,30.34,North,355,11.0,13.0,-999,-99.99,,,-99.99,,2013-03-28 11:03:00,
2013-03-28 06:12:00,51.0,-99.9,30.34,North,358,11.0,12.0,-999,-99.99,,,-99.99,,2013-03-28 11:12:00,
2013-03-28 06:23:00,51.0,-99.9,30.34,North,4,12.0,13.0,-999,-99.99,,,-99.99,,2013-03-28 11:23:00,
2013-03-28 06:32:00,51.0,-99.9,30.35,North,-999,12.0,14.0,-999,-99.99,,,-99.99,,2013-03-28 11:32:00,
2013-03-28 06:43:00,51.0,-99.9,30.35,North,3,12.0,14.0,-999,-99.99,,,-99.99,,2013-03-28 11:43:00,
2013-03-28 06:52:00,51.0,-99.9,30.35,North,1,12.0,14.0,-999,-99.99,,,-99.99,,2013-03-28 11:52:00,
2013-03-28 07:02:00,51.0,-99.9,30.35,North,358,13.0,15.0,-999,-99.99,,,-99.99,,2013-03-28 12:02:00,
2013-03-28 07:12:00,51.0,-99.9,30.35,North,360,13.0,15.0,-999,-99.99,,,-99.99,,2013-03-28 12:12:00,
2013-03-28 07:22:00,51.0,-99.9,30.35,North,357,14.0,16.0,-999,-99.99,,,-99.99,,2013-03-28 12:22:00,
2013-03-28 07:33:00,51.0,-99.9,30.36,North,355,14.0,16.0,-999,-99.99,,,-99.99,,2013-03-28 12:33:00,
2013-03-28 07:42:00,51.0,-99.9,30.36,North,-999,14.0,15.0,-999,-99.99,,,-99.99,,2013-03-28 12:42:00,
2013-03-28 07:52:00,51.0,-99.9,30.36,North,4,15.0,16.0,-999,-99.99,,,-99.99,,2013-03-28 12:52:00,
2013-03-28 08:02:00,51.0,-99.9,30.36,North,1,14.0,16.0,-999,-99.99,,,-99.99,,2013-03-28 13:02:00,
2013-03-28 08:12:00,51.0,-99.9,30.36,North,4,14.0,17.0,-999,-99.99,,,-99.99,,2013-03-28 13:12:00,
2013-03-28 08:22:00,51.0,-99.9,30.36,North,5,15.0,17.0,-999,-99.99,,,-99.99,,2013-03-28 13:22:00,
2013-03-28 08:32:00,51.0,-99.9,30.37,North,1,15.0,17.0,-999,-99.99,,,-99.99,,2013-03-28 13:32:00,
2013-03-28 08:42:00,51.0,-99.9,30.37,North,355,15.0,17.0,-999,-99.99,,,-99.99,,2013-03-28 13:42:00,
2013-03-28 08:52:00,51.0,-99.9,30.37,North,2,14.0,17.0,-999,-99.99,,,-99.99,,2013-03-28 13:52:00,
2013-03-28 09:02:00,51.0,-99.9,30.37,North,359,15.0,16.0,-999,-99.99,,,-99.99,,2013-03-28 14:02:00,
2013-03-28 09:12:00,51.0,-99.9,30.37,North,2,15.0,17.0,-999,-99.99,,,-99.99,,2013-03-28 14:12:00,
2013-03-28 09:23:00,51.0,-99.9,30.38,North,2,15.0,17.0,-999,-99.99,,,-99.99,,2013-03-28 14:23:00,
2013-03-28 09:33:00,51.0,-99.9,30.38,NNE,17,12.0,14.0,-999,-99.99,,,-99.99,,2013-03-28 14:33:00,
2013-03-28 09:42:00,51.0,-99.9,30.38,NNE,15,12.0,15.0,-999,-99.99,,,-99.99,,2013-03-28 14:42:00,
2013-03-28 09:52:00,51.0,-99.9,30.38,NNE,24,14.0,16.0,-999,-99.99,,,-99.99,,2013-03-28 14:52:00,
2013-03-28 10:02:00,52.0,-99.9,30.38,NNE,16,12.0,14.0,-999,-99.99,,,-99.99,,2013-03-28 15:02:00,
2013-03-28 10:12:00,52.0,-99.9,30.39,NNE,23,11.0,15.0,-999,-99.99,,,-99.99,,2013-03-28 15:12:00,
2013-03-28 10:22:00,52.0,-99.9,30.39,NNE,16,13.0,14.0,-999,-99.99,,,-99.99,,2013-03-28 15:22:00,
2013-03-28 10:33:00,53.0,-99.9,30.39,NNE,14,12.0,13.0,-999,-99.99,,,-99.99,,2013-03-28 15:33:00,
2013-03-28 10:43:00,52.0,-99.9,30.39,NNE,15,12.0,13.0,-999,-99.99,,,-99.99,,2013-03-28 15:43:00,
2013-03-28 10:53:00,53.0,-99.9,30.39,North,10,10.0,11.0,-999,-99.99,,,-99.99,,2013-03-28 15:53:00,
2013-03-28 11:03:00,53.0,-99.9,30.39,NNE,15,9.0,11.0,-999,-99.99,,,-99.99,,2013-03-28 16:03:00,
2013-03-28 11:13:00,53.0,-99.9,30.39,NNE,17,8.0,9.0,-999,-99.99,,,-99.99,,2013-03-28 16:13:00,
2013-03-28 11:23:00,54.0,-99.9,30.39,NNE,12,7.0,8.0,-999,-99.99,,,-99.99,,2013-03-28 16:23:00,
2013-03-28 11:32:00,54.0,-99.9,30.39,NNE,26,6.0,7.0,-999,-99.99,,,-99.99,,2013-03-28 16:32:00,
2013-03-28 11:42:00,54.0,-99.9,30.39,NNE,25,6.0,7.0,-999,-99.99,,,-99.99,,2013-03-28 16:42:00,
2013-03-28 11:52:00,54.0,-99.9,30.40,NE,42,5.0,5.0,-999,-99.99,,,-99.99,,2013-03-28 16:52:00,
2013-03-28 12:02:00,55.0,-99.9,30.40,NNE,19,3.0,5.0,-999,-99.99,,,-99.99,,2013-03-28 17:02:00,
2013-03-28 12:12:00,55.0,-99.9,30.40,NE,37,2.0,4.0,-999,-99.99,,,-99.99,,2013-03-28 17:12:00,
2013-03-28 12:22:00,55.0,-99.9,30.39,NE,43,4.0,4.0,-999,-99.99,,,-99.99,,2013-03-28 17:22:00,
2013-03-28 12:32:00,55.0,-99.9,30.39,NNE,27,2.0,3.0,-999,-99.99,,,-99.99,,2013-03-28 17:32:00,
2013-03-28 12:42:00,55.0,-99.9,30.38,NNE,33,3.0,4.0,-999,-99.99,,,-99.99,,2013-03-28 17:42:00,
2013-03-28 12:52:00,56.0,-99.9,30.38,NNE,32,1.0,2.0,-999,-99.99,,,-99.99,,2013-03-28 17:52:00,
2013-03-28 13:03:00,58.0,-99.9,30.38,ENE,70,1.0,2.0,-999,-99.99,,,-99.99,,2013-03-28 18:03:00,
2013-03-28 13:12:00,57.0,-99.9,30.38,East,100,2.0,4.0,-999,-99.99,,,-99.99,,2013-03-28 18:12:00,
2013-03-28 13:22:00,57.0,-99.9,30.37,SE,144,4.0,6.0,-999,-99.99,,,-99.99,,2013-03-28 18:22:00,
2013-03-28 13:32:00,57.0,-99.9,30.37,SSE,149,6.0,7.0,-999,-99.99,,,-99.99,,2013-03-28 18:32:00,
2013-03-28 13:42:00,57.0,-99.9,30.37,South,171,5.0,7.0,-999,-99.99,,,-99.99,,2013-03-28 18:42:00,
2013-03-28 13:52:00,57.0,-99.9,30.36,SSE,158,5.0,7.0,-999,-99.99,,,-99.99,,2013-03-28 18:52:00,
2013-03-28 14:02:00,58.0,-99.9,30.36,SSE,151,6.0,8.0,-999,-99.99,,,-99.99,,2013-03-28 19:02:00,
2013-03-28 14:12:00,58.0,-99.9,30.36,SSE,165,6.0,8.0,-999,-99.99,,,-99.99,,2013-03-28 19:12:00,
2013-03-28 14:23:00,58.0,-99.9,30.35,SSE,165,6.0,9.0,-999,-99.99,,,-99.99,,2013-03-28 19:23:00,
2013-03-28 14:33:00,59.0,-99.9,30.35,South,169,7.0,9.0,-999,-99.99,,,-99.99,,2013-03-28 19:33:00,
2013-03-28 14:43:00,59.0,-99.9,30.35,South,174,8.0,11.0,-999,-99.99,,,-99.99,,2013-03-28 19:43:00,
2013-03-28 14:52:00,59.0,-99.9,30.35,South,174,8.0,11.0,-999,-99.99,,,-99.99,,2013-03-28 19:52:00,
2013-03-28 15:03:00,59.0,-99.9,30.33,South,182,9.0,11.0,-999,-99.99,,,-99.99,,2013-03-28 20:03:00,
2013-03-28 15:12:00,58.0,-99.9,30.33,South,182,9.0,11.0,-999,-99.99,,,-99.99,,2013-03-28 20:12:00,
2013-03-28 15:22:00,59.0,-99.9,30.32,South,184,8.0,10.0,-999,-99.99,,,-99.99,,2013-03-28 20:22:00,
2013-03-28 15:33:00,59.0,-99.9,30.32,South,179,8.0,11.0,-999,-99.99,,,-99.99,,2013-03-28 20:33:00,
2013-03-28 15:42:00,59.0,-99.9,30.31,South,180,10.0,12.0,-999,-99.99,,,-99.99,,2013-03-28 20:42:00,
2013-03-28 15:53:00,59.0,-99.9,30.31,South,179,10.0,13.0,-999,-99.99,,,-99.99,,2013-03-28 20:53:00,
2013-03-28 16:03:00,60.0,-99.9,30.30,South,186,11.0,13.0,-999,-99.99,,,-99.99,,2013-03-28 21:03:00,
2013-03-28 16:12:00,59.0,-99.9,30.30,South,180,11.0,13.0,-999,-99.99,,,-99.99,,2013-03-28 21:12:00,
2013-03-28 16:22:00,59.0,-99.9,30.30,South,189,11.0,15.0,-999,-99.99,,,-99.99,,2013-03-28 21:22:00,
2013-03-28 16:33:00,60.0,-99.9,30.29,South,187,10.0,14.0,-999,-99.99,,,-99.99,,2013-03-28 21:33:00,
2013-03-28 16:43:00,59.0,-99.9,30.29,South,184,13.0,15.0,-999,-99.99,,,-99.99,,2013-03-28 21:43:00,
2013-03-28 16:53:00,59.0,-99.9,30.29,South,181,11.0,14.0,-999,-99.99,,,-99.99,,2013-03-28 21:53:00,
2013-03-28 17:03:00,59.0,-99.9,30.29,South,183,12.0,14.0,-999,-99.99,,,-99.99,,2013-03-28 22:03:00,
2013-03-28 17:13:00,60.0,-99.9,30.29,South,184,12.0,15.0,-999,-99.99,,,-99.99,,2013-03-28 22:13:00,
2013-03-28 17:23:00,59.0,-99.9,30.28,South,185,13.0,15.0,-999,-99.99,,,-99.99,,2013-03-28 22:23:00,
2013-03-28 17:32:00,60.0,-99.9,30.29,South,183,11.0,14.0,-999,-99.99,,,-99.99,,2013-03-28 22:32:00,
2013-03-28 17:42:00,60.0,-99.9,30.29,South,187,10.0,14.0,-999,-99.99,,,-99.99,,2013-03-28 22:42:00,
2013-03-28 17:53:00,60.0,-99.9,30.29,SSW,192,10.0,14.0,-999,-99.99,,,-99.99,,2013-03-28 22:53:00,
2013-03-28 18:03:00,60.0,-99.9,30.29,SSW,192,7.0,13.0,-999,-99.99,,,-99.99,,2013-03-28 23:03:00,
2013-03-28 18:12:00,60.0,-99.9,30.29,South,189,10.0,13.0,-999,-99.99,,,-99.99,,2013-03-28 23:12:00,
2013-03-28 18:22:00,60.0,-99.9,30.29,SSW,194,8.0,13.0,-999,-99.99,,,-99.99,,2013-03-28 23:22:00,
2013-03-28 18:32:00,60.0,-99.9,30.29,South,191,9.0,11.0,-999,-99.99,,,-99.99,,2013-03-28 23:32:00,
2013-03-28 18:42:00,60.0,-99.9,30.29,SSW,197,7.0,11.0,-999,-99.99,,,-99.99,,2013-03-28 23:42:00,
2013-03-28 18:53:00,60.0,-99.9,30.29,SSW,197,8.0,13.0,-999,-99.99,,,-99.99,,2013-03-28 23:53:00,
2013-03-28 19:03:00,60.0,-99.9,30.30,SSW,200,7.0,12.0,-999,-99.99,,,-99.99,,2013-03-29 00:03:00,
2013-03-28 19:12:00,59.0,-99.9,30.30,SSW,195,7.0,11.0,-999,-99.99,,,-99.99,,2013-03-29 00:12:00,
2013-03-28 19:22:00,59.0,-99.9,30.30,South,191,7.0,10.0,-999,-99.99,,,-99.99,,2013-03-29 00:22:00,
2013-03-28 19:33:00,59.0,-99.9,30.30,SSW,198,7.0,10.0,-999,-99.99,,,-99.99,,2013-03-29 00:33:00,
2013-03-28 19:42:00,59.0,-99.9,30.30,SSW,199,5.0,13.0,-999,-99.99,,,-99.99,,2013-03-29 00:42:00,
2013-03-28 19:52:00,59.0,-99.9,30.30,South,190,7.0,10.0,-999,-99.99,,,-99.99,,2013-03-29 00:52:00,
2013-03-28 20:03:00,59.0,-99.9,30.30,SSW,199,6.0,9.0,-999,-99.99,,,-99.99,,2013-03-29 01:03:00,
2013-03-28 20:12:00,59.0,-99.9,30.31,SSW,196,5.0,9.0,-999,-99.99,,,-99.99,,2013-03-29 01:12:00,
2013-03-28 20:23:00,59.0,-99.9,30.31,SSW,206,7.0,9.0,-999,-99.99,,,-99.99,,2013-03-29 01:23:00,
2013-03-28 20:33:00,59.0,-99.9,30.31,SSW,199,4.0,8.0,-999,-99.99,,,-99.99,,2013-03-29 01:33:00,
2013-03-28 20:42:00,59.0,-99.9,30.31,SSW,206,5.0,10.0,-999,-99.99,,,-99.99,,2013-03-29 01:42:00,
2013-03-28 20:53:00,59.0,-99.9,30.31,SSW,194,5.0,7.0,-999,-99.99,,,-99.99,,2013-03-29 01:53:00,
2013-03-28 21:03:00,59.0,-99.9,30.31,SSW,199,6.0,9.0,-999,-99.99,,,-99.99,,2013-03-29 02:03:00,
2013-03-28 21:12:00,59.0,-99.9,30.31,SSW,209,4.0,8.0,-999,-99.99,,,-99.99,,2013-03-29 02:12:00,
2013-03-28 21:22:00,59.0,-99.9,30.32,SSW,199,4.0,7.0,-999,-99.99,,,-99.99,,2013-03-29 02:22:00,
2013-03-28 21:32:00,59.0,-99.9,30.32,SSW,197,4.0,7.0,-999,-99.99,,,-99.99,,2013-03-29 02:32:00,
2013-03-28 21:42:00,59.0,-99.9,30.32,SSW,202,5.0,6.0,-999,-99.99,,,-99.99,,2013-03-29 02:42:00,
2013-03-28 21:53:00,59.0,-99.9,30.32,SSW,199,3.0,6.0,-999,-99.99,,,-99.99,,2013-03-29 02:53:00,
2013-03-28 22:02:00,59.0,-99.9,30.32,SSW,211,5.0,7.0,-999,-99.99,,,-99.99,,2013-03-29 03:02:00,
2013-03-28 22:12:00,59.0,-99.9,30.32,SSW,213,4.0,6.0,-999,-99.99,,,-99.99,,2013-03-29 03:12:00,
2013-03-28 22:22:00,59.0,-99.9,30.32,SW,222,2.0,6.0,-999,-99.99,,,-99.99,,2013-03-29 03:22:00,
2013-03-28 22:33:00,59.0,-99.9,30.33,SW,221,5.0,7.0,-999,-99.99,,,-99.99,,2013-03-29 03:33:00,
2013-03-28 22:43:00,59.0,-99.9,30.33,SW,226,4.0,7.0,-999,-99.99,,,-99.99,,2013-03-29 03:43:00,
2013-03-28 22:53:00,59.0,-99.9,30.33,SW,232,4.0,6.0,-999,-99.99,,,-99.99,,2013-03-29 03:53:00,
2013-03-28 23:03:00,59.0,-99.9,30.33,WSW,256,4.0,6.0,-999,-99.99,,,-99.99,,2013-03-29 04:03:00,
2013-03-28 23:13:00,59.0,-99.9,30.33,WSW,252,4.0,5.0,-999,-99.99,,,-99.99,,2013-03-29 04:13:00,
2013-03-28 23:23:00,59.0,-99.9,30.33,WSW,258,4.0,5.0,-999,-99.99,,,-99.99,,2013-03-29 04:23:00,
2013-03-28 23:33:00,59.0,-99.9,30.33,West,262,5.0,6.0,-999,-99.99,,,-99.99,,2013-03-29 04:33:00,
2013-03-28 23:43:00,59.0,-99.9,30.33,WSW,258,5.0,6.0,-999,-99.99,,,-99.99,,2013-03-29 04:43:00,
2013-03-28 23:53:00,59.0,-99.9,30.33,West,265,5.0,6.0,-999,-99.99,,,-99.99,,2013-03-29 04:53:00,